WTB17G MYNN-MTPP

Flight info

Callsign WTB17G
Flight time 1h 23m
Altitude 35000
Route BOSAR DCT KNSLY DCT JOSES A315 SAVAR SAVAR1C
Aircraft B738/M-SDE2E3FGHIRWXY/LB1

Departure

Time 2026-04-20 18:49
Airport Lynden Pindling International Airport (MYNN)

Arrival

Time 2026-04-20 20:13
Airport Toussaint Louverture International Airport (MTPP)
Time Latitude Longitude Altitude Speed Heading
2026-04-20 17:45 25.04929 -77.46745 16 ft 0 kts 147°
2026-04-20 18:33 25.04935 -77.46749 16 ft 4 kts 147°
2026-04-20 18:33 25.04958 -77.46765 17 ft 4 kts 156°
2026-04-20 18:33 25.04978 -77.46770 17 ft 4 kts 223°
2026-04-20 18:34 25.04981 -77.46766 20 ft 3 kts 248°
2026-04-20 18:39 25.04975 -77.46782 17 ft 10 kts 248°
2026-04-20 18:39 25.04925 -77.46904 16 ft 19 kts 245°
2026-04-20 18:40 25.04928 -77.47032 17 ft 18 kts 313°
2026-04-20 18:40 25.05016 -77.47129 18 ft 18 kts 314°
2026-04-20 18:40 25.05100 -77.47222 17 ft 17 kts 315°
2026-04-20 18:40 25.05167 -77.47297 17 ft 0 kts 314°
2026-04-20 18:41 25.05185 -77.47317 19 ft 11 kts 318°
2026-04-20 18:41 25.05216 -77.47357 18 ft 0 kts 300°
2026-04-20 18:44 25.05223 -77.47372 17 ft 12 kts 295°
2026-04-20 18:44 25.05216 -77.47424 18 ft 0 kts 250°
2026-04-20 18:46 25.05216 -77.47425 18 ft 3 kts 250°
2026-04-20 18:46 25.05183 -77.47505 20 ft 16 kts 231°
2026-04-20 18:46 25.05122 -77.47502 19 ft 10 kts 139°
2026-04-20 18:47 25.05102 -77.47480 20 ft 0 kts 131°
2026-04-20 18:48 25.05061 -77.47429 19 ft 36 kts 132°
2026-04-20 18:49 25.04714 -77.47048 20 ft 102 kts 136°
2026-04-20 18:49 25.04076 -77.46333 18 ft 164 kts 134°
2026-04-20 18:49 25.03184 -77.45371 805 ft 171 kts 135°
2026-04-20 18:49 25.02332 -77.44475 2157 ft 172 kts 133°
2026-04-20 18:50 25.01437 -77.43459 2888 ft 202 kts 133°
2026-04-20 18:50 25.00393 -77.42277 3268 ft 229 kts 133°
2026-04-20 18:50 24.99239 -77.40946 3449 ft 258 kts 129°
2026-04-20 18:50 24.98121 -77.39326 4021 ft 268 kts 124°
2026-04-20 18:51 24.97052 -77.37630 4808 ft 271 kts 124°
2026-04-20 18:51 24.95981 -77.35901 5544 ft 275 kts 124°
2026-04-20 18:51 24.94891 -77.34144 6256 ft 280 kts 124°
2026-04-20 18:51 24.93779 -77.32360 6942 ft 284 kts 124°
2026-04-20 18:52 24.92649 -77.30555 7638 ft 287 kts 124°
2026-04-20 18:52 24.91504 -77.28734 8324 ft 291 kts 124°
2026-04-20 18:52 24.90342 -77.26890 9034 ft 294 kts 125°
2026-04-20 18:52 24.89168 -77.25032 9729 ft 298 kts 125°
2026-04-20 18:53 24.87984 -77.23162 10287 ft 306 kts 125°
2026-04-20 18:53 24.86719 -77.21164 10438 ft 329 kts 125°
2026-04-20 18:53 24.85376 -77.19047 10746 ft 344 kts 125°
2026-04-20 18:53 24.83993 -77.16867 11286 ft 350 kts 126°
2026-04-20 18:54 24.82590 -77.14658 11915 ft 354 kts 126°
2026-04-20 18:54 24.81170 -77.12423 12527 ft 359 kts 126°
2026-04-20 18:54 24.79727 -77.10152 13121 ft 364 kts 126°
2026-04-20 18:54 24.78266 -77.07856 13731 ft 369 kts 126°
2026-04-20 18:55 24.76782 -77.05522 14303 ft 374 kts 127°
2026-04-20 18:55 24.75285 -77.03171 14920 ft 376 kts 127°
2026-04-20 18:55 24.73778 -77.00804 15539 ft 380 kts 127°
2026-04-20 18:55 24.72257 -76.98417 16138 ft 383 kts 127°
2026-04-20 18:56 24.70718 -76.96001 16742 ft 387 kts 127°
2026-04-20 18:56 24.69165 -76.93565 17329 ft 391 kts 127°
2026-04-20 18:56 24.67596 -76.91105 17910 ft 395 kts 127°
2026-04-20 18:56 24.66009 -76.88619 18468 ft 399 kts 127°
2026-04-20 18:57 24.64396 -76.86125 18952 ft 402 kts 130°
2026-04-20 18:57 24.62518 -76.83842 19411 ft 404 kts 141°
2026-04-20 18:57 24.60364 -76.81852 19892 ft 406 kts 144°
2026-04-20 18:57 24.58152 -76.79897 20370 ft 410 kts 144°
2026-04-20 18:58 24.55905 -76.77935 20850 ft 414 kts 144°
2026-04-20 18:58 24.53670 -76.75980 21314 ft 418 kts 144°
2026-04-20 18:58 24.51389 -76.73976 21781 ft 422 kts 144°
2026-04-20 18:58 24.49091 -76.71945 22234 ft 426 kts 144°
2026-04-20 18:59 24.46776 -76.69892 22679 ft 430 kts 144°
2026-04-20 18:59 24.44438 -76.67813 23119 ft 434 kts 144°
2026-04-20 18:59 24.42082 -76.65716 23538 ft 438 kts 144°
2026-04-20 18:59 24.39712 -76.63605 23911 ft 441 kts 144°
2026-04-20 19:00 24.37319 -76.61473 24296 ft 444 kts 144°
2026-04-20 19:00 24.34910 -76.59329 24682 ft 446 kts 144°
2026-04-20 19:00 24.32490 -76.57175 25056 ft 449 kts 144°
2026-04-20 19:00 24.30058 -76.55013 25415 ft 452 kts 144°
2026-04-20 19:01 24.27604 -76.52832 25774 ft 455 kts 144°
2026-04-20 19:01 24.25136 -76.50641 26138 ft 458 kts 144°
2026-04-20 19:01 24.22658 -76.48441 26495 ft 460 kts 144°
2026-04-20 19:01 24.20305 -76.46354 26828 ft 463 kts 144°
2026-04-20 19:02 24.17793 -76.44127 27162 ft 465 kts 144°
2026-04-20 19:02 24.15269 -76.41890 27498 ft 468 kts 144°
2026-04-20 19:02 24.12735 -76.39646 27833 ft 471 kts 144°
2026-04-20 19:02 24.10183 -76.37387 28153 ft 473 kts 144°
2026-04-20 19:03 24.07610 -76.35111 28480 ft 476 kts 144°
2026-04-20 19:03 24.05034 -76.32832 28785 ft 478 kts 144°
2026-04-20 19:03 24.02433 -76.30534 29087 ft 481 kts 144°
2026-04-20 19:03 23.99859 -76.28260 29394 ft 483 kts 144°
2026-04-20 19:04 23.97204 -76.25916 29701 ft 486 kts 144°
2026-04-20 19:04 23.94608 -76.23625 30003 ft 488 kts 144°
2026-04-20 19:04 23.91959 -76.21289 30270 ft 490 kts 144°
2026-04-20 19:04 23.89264 -76.18914 30498 ft 492 kts 144°
2026-04-20 19:05 23.86626 -76.16590 30722 ft 495 kts 144°
2026-04-20 19:05 23.83942 -76.14227 31009 ft 495 kts 144°
2026-04-20 19:05 23.81259 -76.11865 31342 ft 495 kts 144°
2026-04-20 19:05 23.78582 -76.09509 31666 ft 495 kts 145°
2026-04-20 19:06 23.75899 -76.07150 31952 ft 495 kts 145°
2026-04-20 19:06 23.73214 -76.04791 32246 ft 496 kts 145°
2026-04-20 19:06 23.70527 -76.02432 32539 ft 496 kts 145°
2026-04-20 19:06 23.67844 -76.00077 32822 ft 496 kts 145°
2026-04-20 19:07 23.65151 -75.97715 33090 ft 497 kts 145°
2026-04-20 19:07 23.62458 -75.95355 33375 ft 497 kts 145°
2026-04-20 19:07 23.59764 -75.92994 33673 ft 497 kts 145°
2026-04-20 19:07 23.57066 -75.90632 33920 ft 498 kts 145°
2026-04-20 19:08 23.54365 -75.88268 34182 ft 498 kts 145°
2026-04-20 19:08 23.48983 -75.83561 34761 ft 495 kts 146°
2026-04-20 19:08 23.46303 -75.81218 35037 ft 494 kts 146°
2026-04-20 19:09 23.43613 -75.78870 35053 ft 498 kts 146°
2026-04-20 19:09 23.38193 -75.74143 35058 ft 499 kts 145°
2026-04-20 19:10 23.32812 -75.69448 35056 ft 493 kts 146°
2026-04-20 19:10 23.27438 -75.64773 35084 ft 502 kts 146°
2026-04-20 19:11 23.21930 -75.59987 35073 ft 511 kts 145°
2026-04-20 19:11 23.16334 -75.55125 35069 ft 517 kts 145°
2026-04-20 19:12 23.10710 -75.50241 35061 ft 519 kts 145°
2026-04-20 19:12 23.05058 -75.45338 35056 ft 519 kts 145°
2026-04-20 19:13 22.99418 -75.40453 35054 ft 518 kts 145°
2026-04-20 19:13 22.93788 -75.35582 35055 ft 517 kts 145°
2026-04-20 19:14 22.88172 -75.30730 35054 ft 515 kts 145°
2026-04-20 19:14 22.82610 -75.25929 35057 ft 514 kts 145°
2026-04-20 19:15 22.77019 -75.21108 35057 ft 512 kts 145°
2026-04-20 19:15 22.71461 -75.16321 35045 ft 508 kts 145°
2026-04-20 19:16 22.65954 -75.11581 35052 ft 504 kts 145°
2026-04-20 19:16 22.60465 -75.06865 35053 ft 502 kts 145°
2026-04-20 19:17 22.54991 -75.02167 35055 ft 501 kts 145°
2026-04-20 19:17 22.49527 -74.97481 35056 ft 501 kts 145°
2026-04-20 19:18 22.44060 -74.92798 35055 ft 502 kts 145°
2026-04-20 19:18 22.38657 -74.88174 35053 ft 503 kts 145°
2026-04-20 19:19 22.33095 -74.83418 35050 ft 504 kts 145°
2026-04-20 19:19 22.27587 -74.78714 35053 ft 505 kts 145°
2026-04-20 19:20 22.22108 -74.74039 35051 ft 506 kts 145°
2026-04-20 19:20 22.16544 -74.69296 35048 ft 506 kts 145°
2026-04-20 19:21 22.11046 -74.64615 35047 ft 506 kts 145°
2026-04-20 19:21 22.05509 -74.59904 35043 ft 506 kts 145°
2026-04-20 19:22 21.99981 -74.55207 35049 ft 505 kts 145°
2026-04-20 19:22 21.94457 -74.50518 35037 ft 504 kts 145°
2026-04-20 19:23 21.88959 -74.45854 35030 ft 500 kts 145°
2026-04-20 19:23 21.83534 -74.41257 35028 ft 493 kts 145°
2026-04-20 19:24 21.78150 -74.36701 35033 ft 491 kts 145°
2026-04-20 19:24 21.72779 -74.32161 35030 ft 490 kts 145°
2026-04-20 19:25 21.67418 -74.27634 35044 ft 490 kts 145°
2026-04-20 19:25 21.62053 -74.23107 35033 ft 490 kts 145°
2026-04-20 19:26 21.56722 -74.18613 35027 ft 490 kts 145°
2026-04-20 19:26 21.51344 -74.14084 35039 ft 491 kts 145°
2026-04-20 19:27 21.45946 -74.09542 35037 ft 492 kts 144°
2026-04-20 19:27 21.40551 -74.05007 35030 ft 493 kts 144°
2026-04-20 19:28 21.35145 -74.00467 35032 ft 494 kts 144°
2026-04-20 19:28 21.29753 -73.95944 35035 ft 494 kts 144°
2026-04-20 19:29 21.24341 -73.91406 35025 ft 494 kts 144°
2026-04-20 19:29 21.18919 -73.86866 35028 ft 494 kts 144°
2026-04-20 19:30 21.13499 -73.82331 35025 ft 494 kts 144°
2026-04-20 19:30 21.08092 -73.77812 35022 ft 493 kts 144°
2026-04-20 19:31 21.02675 -73.73287 35023 ft 493 kts 144°
2026-04-20 19:31 20.97265 -73.68777 35019 ft 492 kts 146°
2026-04-20 19:32 20.91494 -73.65020 35025 ft 486 kts 156°
2026-04-20 19:32 20.85478 -73.61702 35011 ft 486 kts 156°
2026-04-20 19:33 20.79476 -73.58387 35014 ft 486 kts 156°
2026-04-20 19:33 20.73496 -73.55031 35014 ft 485 kts 155°
2026-04-20 19:34 20.67532 -73.51663 35011 ft 485 kts 155°
2026-04-20 19:34 20.62553 -73.48851 35010 ft 485 kts 155°
2026-04-20 19:35 20.56579 -73.45483 35014 ft 485 kts 155°
2026-04-20 19:35 20.50699 -73.42170 34993 ft 466 kts 155°
2026-04-20 19:36 20.45021 -73.38974 35006 ft 459 kts 155°
2026-04-20 19:36 20.42187 -73.37383 34860 ft 461 kts 155°
2026-04-20 19:36 20.39349 -73.35791 34535 ft 458 kts 155°
2026-04-20 19:36 20.36546 -73.34217 34183 ft 454 kts 155°
2026-04-20 19:37 20.33788 -73.32669 33790 ft 452 kts 155°
2026-04-20 19:37 20.31015 -73.31112 33370 ft 449 kts 155°
2026-04-20 19:37 20.28258 -73.29565 32973 ft 447 kts 155°
2026-04-20 19:37 20.25510 -73.28024 32582 ft 444 kts 155°
2026-04-20 19:38 20.22789 -73.26499 32201 ft 441 kts 155°
2026-04-20 19:38 20.20073 -73.24977 31819 ft 439 kts 155°
2026-04-20 19:38 20.17376 -73.23467 31446 ft 437 kts 155°
2026-04-20 19:38 20.14692 -73.21964 31074 ft 435 kts 155°
2026-04-20 19:39 20.12019 -73.20473 30672 ft 434 kts 155°
2026-04-20 19:39 20.09344 -73.18986 30303 ft 432 kts 155°
2026-04-20 19:39 20.06682 -73.17507 29891 ft 431 kts 155°
2026-04-20 19:39 20.04027 -73.16033 29480 ft 429 kts 155°
2026-04-20 19:40 20.01393 -73.14570 29084 ft 427 kts 155°
2026-04-20 19:40 19.98766 -73.13111 28685 ft 425 kts 155°
2026-04-20 19:40 19.96153 -73.11660 28308 ft 423 kts 155°
2026-04-20 19:40 19.93549 -73.10215 27927 ft 421 kts 155°
2026-04-20 19:41 19.90991 -73.08795 27554 ft 419 kts 155°
2026-04-20 19:41 19.88412 -73.07357 27173 ft 417 kts 154°
2026-04-20 19:41 19.85855 -73.05910 26795 ft 416 kts 154°
2026-04-20 19:41 19.83298 -73.04456 26417 ft 414 kts 154°
2026-04-20 19:42 19.80758 -73.03014 26023 ft 412 kts 154°
2026-04-20 19:42 19.78234 -73.01585 25672 ft 410 kts 154°
2026-04-20 19:42 19.75726 -73.00150 25288 ft 410 kts 153°
2026-04-20 19:42 19.73241 -72.98675 24908 ft 409 kts 152°
2026-04-20 19:43 19.71602 -72.97690 24642 ft 409 kts 152°
2026-04-20 19:43 19.68241 -72.95684 24139 ft 417 kts 152°
2026-04-20 19:43 19.65752 -72.94174 23756 ft 417 kts 151°
2026-04-20 19:43 19.63232 -72.92642 23312 ft 417 kts 151°
2026-04-20 19:44 19.60718 -72.91119 22896 ft 416 kts 151°
2026-04-20 19:44 19.58205 -72.89603 22490 ft 415 kts 151°
2026-04-20 19:44 19.55692 -72.88092 22092 ft 414 kts 151°
2026-04-20 19:44 19.53191 -72.86591 21699 ft 413 kts 151°
2026-04-20 19:45 19.50694 -72.85096 21314 ft 411 kts 151°
2026-04-20 19:45 19.48206 -72.83606 20927 ft 410 kts 151°
2026-04-20 19:45 19.45723 -72.82120 20538 ft 409 kts 151°
2026-04-20 19:45 19.43247 -72.80639 20158 ft 408 kts 151°
2026-04-20 19:46 19.40781 -72.79164 19774 ft 407 kts 151°
2026-04-20 19:46 19.38313 -72.77688 19381 ft 406 kts 151°
2026-04-20 19:46 19.35857 -72.76220 18990 ft 406 kts 151°
2026-04-20 19:46 19.33400 -72.74752 18586 ft 406 kts 151°
2026-04-20 19:47 19.30967 -72.73299 18187 ft 405 kts 150°
2026-04-20 19:47 19.28514 -72.71835 17748 ft 404 kts 150°
2026-04-20 19:47 19.26066 -72.70373 17347 ft 403 kts 150°
2026-04-20 19:47 19.23628 -72.68919 16949 ft 402 kts 150°
2026-04-20 19:48 19.21196 -72.67468 16543 ft 400 kts 150°
2026-04-20 19:48 19.18777 -72.66025 16165 ft 399 kts 150°
2026-04-20 19:48 19.16365 -72.64587 15786 ft 397 kts 150°
2026-04-20 19:48 19.13961 -72.63155 15412 ft 396 kts 150°
2026-04-20 19:49 19.11563 -72.61726 15021 ft 395 kts 150°
2026-04-20 19:49 19.09217 -72.60236 14630 ft 394 kts 142°
2026-04-20 19:49 19.07315 -72.58179 14287 ft 391 kts 128°
2026-04-20 19:49 19.05641 -72.55921 13902 ft 390 kts 127°
2026-04-20 19:50 19.03978 -72.53650 13470 ft 390 kts 127°
2026-04-20 19:50 19.02315 -72.51390 13051 ft 389 kts 127°
2026-04-20 19:50 19.00637 -72.49150 12634 ft 387 kts 131°
2026-04-20 19:50 18.98584 -72.47323 12209 ft 387 kts 150°
2026-04-20 19:51 18.96084 -72.46340 11834 ft 385 kts 170°
2026-04-20 19:51 18.93429 -72.46262 11539 ft 380 kts 185°
2026-04-20 19:51 18.90821 -72.46595 11319 ft 374 kts 188°
2026-04-20 19:51 18.88354 -72.46979 11185 ft 366 kts 189°
2026-04-20 19:52 18.85875 -72.47381 11051 ft 354 kts 189°
2026-04-20 19:52 18.83491 -72.47774 11012 ft 339 kts 189°
2026-04-20 19:52 18.81240 -72.48149 11000 ft 324 kts 189°
2026-04-20 19:52 18.79033 -72.48517 10997 ft 310 kts 189°
2026-04-20 19:53 18.76973 -72.48862 11002 ft 298 kts 189°
2026-04-20 19:53 18.74937 -72.49202 11009 ft 295 kts 189°
2026-04-20 19:53 18.72911 -72.49541 11020 ft 295 kts 189°
2026-04-20 19:53 18.70881 -72.49880 11031 ft 296 kts 189°
2026-04-20 19:54 18.68832 -72.50139 11014 ft 297 kts 178°
2026-04-20 19:54 18.66848 -72.49618 11029 ft 296 kts 152°
2026-04-20 19:54 18.65271 -72.48252 11025 ft 295 kts 126°
2026-04-20 19:54 18.64409 -72.46306 11031 ft 294 kts 100°
2026-04-20 19:55 18.64432 -72.44176 11036 ft 292 kts 74°
2026-04-20 19:55 18.65326 -72.42277 11033 ft 291 kts 49°
2026-04-20 19:55 18.66766 -72.40790 11036 ft 289 kts 41°
2026-04-20 19:55 18.68269 -72.39429 11013 ft 279 kts 39°
2026-04-20 19:56 18.69722 -72.38139 11006 ft 267 kts 39°
2026-04-20 19:56 18.71108 -72.36913 11009 ft 254 kts 39°
2026-04-20 19:56 18.72433 -72.35741 11000 ft 243 kts 39°
2026-04-20 19:56 18.73711 -72.34611 11014 ft 238 kts 39°
2026-04-20 19:57 18.75002 -72.33469 11038 ft 246 kts 39°
2026-04-20 19:57 18.76335 -72.32291 11028 ft 253 kts 39°
2026-04-20 19:57 18.77719 -72.31070 10651 ft 266 kts 39°
2026-04-20 19:57 18.79150 -72.29814 10296 ft 269 kts 39°
2026-04-20 19:58 18.80583 -72.28561 9918 ft 273 kts 39°
2026-04-20 19:58 18.82062 -72.27273 9496 ft 277 kts 39°
2026-04-20 19:58 18.83564 -72.25969 9101 ft 280 kts 39°
2026-04-20 19:58 18.85045 -72.24687 9025 ft 270 kts 39°
2026-04-20 19:59 18.86471 -72.23456 8998 ft 259 kts 39°
2026-04-20 19:59 18.87831 -72.22282 8988 ft 247 kts 39°
2026-04-20 19:59 18.89149 -72.21144 8993 ft 243 kts 39°
2026-04-20 19:59 18.90448 -72.20004 9000 ft 244 kts 45°
2026-04-20 20:00 18.91322 -72.18494 9002 ft 243 kts 76°
2026-04-20 20:00 18.91336 -72.16726 8998 ft 243 kts 107°
2026-04-20 20:00 18.90489 -72.15206 9007 ft 243 kts 138°
2026-04-20 20:00 18.89022 -72.14358 9012 ft 243 kts 169°
2026-04-20 20:01 18.87352 -72.14422 9019 ft 243 kts 200°
2026-04-20 20:01 18.85945 -72.15382 9017 ft 244 kts 230°
2026-04-20 20:01 18.85102 -72.16930 9026 ft 245 kts 247°
2026-04-20 20:01 18.84449 -72.18610 9025 ft 248 kts 249°
2026-04-20 20:02 18.83812 -72.20312 9022 ft 250 kts 249°
2026-04-20 20:02 18.83176 -72.22030 9016 ft 251 kts 249°
2026-04-20 20:02 18.82538 -72.23764 8721 ft 259 kts 249°
2026-04-20 20:02 18.81880 -72.25557 8363 ft 262 kts 249°
2026-04-20 20:03 18.81229 -72.27338 8064 ft 263 kts 249°
2026-04-20 20:03 18.80588 -72.29100 8018 ft 252 kts 249°
2026-04-20 20:03 18.79975 -72.30787 8004 ft 242 kts 249°
2026-04-20 20:03 18.79374 -72.32437 8008 ft 240 kts 248°
2026-04-20 20:04 18.78445 -72.33877 8015 ft 240 kts 218°
2026-04-20 20:04 18.76938 -72.34612 8025 ft 243 kts 187°
2026-04-20 20:04 18.75270 -72.34425 8039 ft 244 kts 156°
2026-04-20 20:04 18.73921 -72.33362 8028 ft 245 kts 126°
2026-04-20 20:05 18.73258 -72.31724 8037 ft 245 kts 97°
2026-04-20 20:05 18.73206 -72.29927 8036 ft 246 kts 88°
2026-04-20 20:05 18.73265 -72.28122 8011 ft 247 kts 87°
2026-04-20 20:05 18.73336 -72.26322 7991 ft 244 kts 87°
2026-04-20 20:06 18.73412 -72.24508 7700 ft 250 kts 87°
2026-04-20 20:06 18.73494 -72.22676 7413 ft 250 kts 87°
2026-04-20 20:06 18.73580 -72.20834 7087 ft 253 kts 87°
2026-04-20 20:06 18.73671 -72.18963 6738 ft 257 kts 87°
2026-04-20 20:07 18.73766 -72.17068 6406 ft 260 kts 87°
2026-04-20 20:07 18.73865 -72.15193 6322 ft 251 kts 87°
2026-04-20 20:07 18.73962 -72.13395 6295 ft 240 kts 88°
2026-04-20 20:07 18.73629 -72.11725 6278 ft 236 kts 122°
2026-04-20 20:08 18.72335 -72.10539 5798 ft 260 kts 163°
2026-04-20 20:08 18.70586 -72.10467 5521 ft 257 kts 197°
2026-04-20 20:08 18.69116 -72.11503 5354 ft 253 kts 222°
2026-04-20 20:08 18.67594 -72.12357 5277 ft 247 kts 193°
2026-04-20 20:09 18.65920 -72.12663 5150 ft 243 kts 187°
2026-04-20 20:09 18.64235 -72.12834 4716 ft 241 kts 184°
2026-04-20 20:09 18.62576 -72.12926 4297 ft 236 kts 182°
2026-04-20 20:09 18.60960 -72.13069 3860 ft 231 kts 196°
2026-04-20 20:10 18.59603 -72.13896 3456 ft 224 kts 227°
2026-04-20 20:10 18.58800 -72.15296 3096 ft 230 kts 252°
2026-04-20 20:10 18.58537 -72.16986 2708 ft 236 kts 265°
2026-04-20 20:10 18.58461 -72.18683 2308 ft 228 kts 268°
2026-04-20 20:11 18.58410 -72.20311 2041 ft 213 kts 268°
2026-04-20 20:11 18.58358 -72.21768 1988 ft 185 kts 269°
2026-04-20 20:11 18.58309 -72.23138 1298 ft 194 kts 266°
2026-04-20 20:11 18.58239 -72.24554 858 ft 187 kts 267°
2026-04-20 20:12 18.58174 -72.25852 580 ft 168 kts 267°
2026-04-20 20:12 18.58118 -72.26927 367 ft 153 kts 266°
2026-04-20 20:12 18.58050 -72.27956 164 ft 128 kts 271°
2026-04-20 20:13 18.58003 -72.29226 105 ft 36 kts 265°
2026-04-20 20:13 18.57985 -72.29450 104 ft 9 kts 259°
2026-04-20 20:13 18.57930 -72.29474 103 ft 0 kts 180°
2026-04-20 20:13 18.57902 -72.29473 103 ft 16 kts 178°
2026-04-20 20:14 18.57830 -72.29470 100 ft 0 kts 178°
2026-04-20 20:14 18.57796 -72.29465 100 ft 14 kts 171°
2026-04-20 20:14 18.57711 -72.29417 100 ft 9 kts 131°
2026-04-20 20:14 18.57689 -72.29368 101 ft 7 kts 96°
2026-04-20 20:15 18.57686 -72.29339 101 ft 0 kts 104°
2026-04-20 20:15 18.57659 -72.29336 102 ft 0 kts 184°
2026-04-20 20:15 18.57652 -72.29335 102 ft 1 kts 177°
2026-04-20 20:15 18.57643 -72.29334 102 ft 3 kts 173°
2026-04-20 20:16 18.57615 -72.29332 102 ft 0 kts 177°